Location: Aulus
(42.7909°N, 1.3399°E)
Time: 07:27:59
(UTC+00:00)

Cosmos 2360 Rocket - Visible Passes

Search period start: 21 April 2026 00:00
Search period end: 01 May 2026 00:00
Orbit: 832 x 845 km, 71.0° (Epoch: 20 April)

Date Brightness Start Highest point End Pass type
(mag) Time Alt. Az. Time Alt. Az. Time Alt. Az.
21 Apr 4.8 01:05:07 10° N 01:08:41 17° NE 01:12:14 10° E visible
21 Apr 2.1 02:47:45 10° NNW 02:53:28 90° W 02:59:08 10° SSE visible
21 Apr 5.6 19:29:10 10° NW 19:29:57 10° NW 19:30:44 10° NNW visible
22 Apr 4.8 00:49:07 10° N 00:52:29 16° NE 00:55:50 10° E visible
22 Apr 2.2 02:31:38 10° NNW 02:37:20 85° ENE 02:43:00 10° SSE visible
22 Apr 3.8 04:17:52 10° WNW 04:20:29 13° W 04:23:04 10° SW visible
22 Apr 5.4 19:12:16 10° NW 19:13:44 11° NW 19:15:13 10° NNW visible
23 Apr 4.8 00:33:09 10° N 00:36:16 15° NE 00:39:25 10° ENE visible
23 Apr 2.2 02:15:30 10° NNW 02:21:13 79° ENE 02:24:32 26° SSE visible
23 Apr 3.7 04:01:27 10° WNW 04:04:25 15° W 04:06:07 13° WSW visible
24 Apr 4.8 00:17:11 10° NNE 00:20:05 14° NE 00:22:59 10° ENE visible
24 Apr 2.3 01:59:23 10° NNW 02:05:05 74° ENE 02:07:06 41° SE visible
24 Apr 3.7 03:45:04 10° WNW 03:48:20 16° W 03:48:44 16° WSW visible
25 Apr 4.8 00:01:14 10° NNE 00:03:52 13° NE 00:06:30 10° ENE visible
25 Apr 2.4 01:43:17 10° NNW 01:48:57 69° ENE 01:50:08 54° ESE visible
25 Apr 3.7 03:28:43 10° WNW 03:31:48 17° W 03:31:48 17° W visible
25 Apr 4.8 23:45:20 10° NNE 23:47:40 12° NE 23:50:00 10° ENE visible
26 Apr 2.4 01:27:10 10° NNW 01:32:49 65° ENE 01:33:28 60° E visible
26 Apr 3.7 03:12:25 10° WNW 03:15:08 18° W 03:15:08 18° W visible
26 Apr 4.8 23:29:29 10° NNE 23:31:28 12° NE 23:33:26 10° ENE visible
27 Apr 2.5 01:11:03 10° NNW 01:16:40 60° ENE 01:16:58 59° ENE visible
27 Apr 3.8 02:56:08 10° NW 02:58:38 18° W 02:58:38 18° W visible
27 Apr 4.9 23:13:43 10° NNE 23:15:15 11° NE 23:16:47 10° NE visible
28 Apr 2.6 00:54:57 10° NNW 01:00:32 56° ENE 01:00:35 56° ENE visible
28 Apr 3.8 02:39:52 10° NW 02:42:16 19° WNW 02:42:16 19° WNW visible
28 Apr 4.9 22:58:09 10° NNE 22:59:01 10° NE 22:59:55 10° NE visible
29 Apr 2.8 00:38:50 10° NNW 00:44:18 52° ENE 00:44:18 52° ENE visible
29 Apr 3.8 02:23:36 10° NW 02:26:00 19° WNW 02:26:00 19° WNW visible
30 Apr 2.9 00:22:44 10° NNW 00:28:06 49° NE 00:28:06 49° NE visible
30 Apr 3.8 02:07:22 10° NW 02:09:48 20° WNW 02:09:48 20° WNW visible
